Showing default

LEMUR 2 PETERG, 42841

Orbit data source: Space-Track

LEMUR 2 PETERG, 42841 is a payload satellite owned by Spire (US) in SSO that was launched on Fri, 14 Jul 2017 UTC via a SOYUZ-2-1A launch vehicle from the Tyuratam Missile And Space Complex (TTMTR). Payload-class satellites include a variety of spacecraft equipped with specific instruments for various scientific and technological missions. These include communications satellites like Starlink; space stations such as the ISS; scientific satellites like the Hubble; Earth observation satellites from companies like Planet Labs, Umbra, and HawkEye 360; GPS; miniature CubeSats for education and research; and military/defense satellites.

Loading next visibility...
Identifier
42841, 2017-042S
Orbit
SSO
Country
Flag of USUS
Related business
Manufacturer
Spire/Glasgow
Mission
Operational Commercial Com/MetRO
Bus & Motor
CUBESAT 3U, Unknown motor
Mass
4 kg wet, 4 kg dry
Launch date (UTC)
2017-07-14 (8 years ago)
Launch vehicle
SOYUZ-2-1A
Launch site
Tyuratam Missile And Space Complex (TTMTR)
Object type
Payload
Rocket body
Debris
Shape & HBR
Box, 0.5 m
Radar Cross Section
0.093 m², Small (<0.1 m²)

Expand to show TLE details & history
Last TLE update: 14 hours ago

TLE from 14 hours ago
0 LEMUR 2 PETERG
1 42841U 17042S   25310.44756484  .00029328  00000-0  12269-2 0  9992
2 42841  97.3929 131.8402 0005424  55.3700 304.8047 15.23521258454401
Epoch: 2025-11-06T10:44Z
TLE epoch observation values (Epoch: 2025-11-06T10:44:29.602Z)
Latitude
-0.00009°
Longitude
-75.18888°
Altitude
496.198 km
Speed
7.618 km/s
True Right ascension
08h 47m 21s
True Declination
0° 00' 00"
Sunlit
Object was in daylight at epoch
Visualization orbit readout
Latitude
Unknown
Longitude
Unknown
Altitude
Unknown
Speed
Unknown
Apparent Right ascension
Unknown
Apparent Declination
Unknown
Sunlit
N/A
Visualization observer readout
Local Sidereal Time
20:22:21
Azimuth
Unknown
Elevation
Unknown
Doppler factor
Unknown
Orbital elements
Apogee altitude
495.916 km
Perigee altitude
488.464 km
Semi-major axis
6,870.327 km
Eccentricity
0.00054
Inclination
97.3929°
RAAN
131.8402°
Arg. of periapsis
55.37°
True anomaly
304.75365°
Mean anomaly
304.8047°
Eccentric anomaly
304.77917°
Mean motion
3.81133 °/min
Orbital period
94.46 mins
BSTAR
0.0012269
Loading maneuver chart data...
Computing Atmospheric mass density...
Loading historical data...
Loading historical data...
Loading historical data...
Loading historical data...
Loading historical data...
Loading historical data...
Loading historical data...

Documentation

Showing up to 5 results
|